Regional Weather Roundup
Issued by NWS Sterling, VA

Home | Current Version | Previous Version | Graphics & Text | Print | Product List | Glossary On
Versions: 1 2 3 4 5 6 7 8 9 10 11 12 13 14 15 16 17 18 19 20 21 22 23 24 25 26 27 28 29 30 31 32 33 34 35 36 37 38 39 40 41 42 43 44 45 46 47 48 49 50
000
ASUS41 KLWX 170210
RWRLWX

REGIONAL WEATHER ROUNDUP
NATIONAL WEATHER SERVICE BALTIMORE MD/WASHINGTON DC
1000 PM EDT WED AUG 16 2017

Note: "FAIR" indicates few or no clouds below 12,000 feet
with no significant weather and/or obstructions to visibility.
 TC=TEMPERATURE CELSIUS

 * =Non NWS site. Station does not report precipitation (e.g. rain,
    snow, etc.), thunder, or fog.

DCZ001-MDZ009-015-VAZ040>042-051-053>054-170300-
WASHINGTON METRO

CITY           SKY/WX    TMP DP  RH WIND       PRES   REMARKS
WASHINGTON NAT CLOUDY    82  75  79 NE5       30.02R
DULLES         CLOUDY    77  72  84 CALM      30.03R
ANDREWS AFB    PTCLDY    78  74  87 E5        30.02R
FT BELVOIR     CLOUDY    77  73  87 CALM      30.02R
QUANTICO       CLOUDY    79  76  90 NW5       30.02R
COLLEGE PARK*  CLOUDY    77  71  81 CALM      30.02R
LEESBURG*      CLOUDY    79  75  89 CALM      30.04R
MANASSAS*      LGT RAIN  76  70  82 NE13      30.03R
GAITHERSBURG*  PTCLDY    71  69  93 CALM      30.05R

$$

MDZ006>007-011-014-170300-
BALTIMORE METRO

CITY           SKY/WX    TMP DP  RH WIND       PRES   REMARKS
BWI AIRPORT    PTCLDY    74  72  93 CALM      30.02R
MD SCIENCE CTR   N/A     82  72  71 MISG      30.02R
MARTIN STATE   PTCLDY    77  75  94 CALM      30.03R
ANNAPOLIS      MOCLDY    79  77  94 CALM      30.02R
FORT MEADE*    PTCLDY    72  70  94 CALM      30.05R

$$

MDZ012-015-019>023-170300-
MARYLAND EASTERN SHORE

CITY           SKY/WX    TMP DP  RH WIND       PRES   REMARKS
OCEAN CITY     PTCLDY    76  71  85 SW6       30.03R
SALISBURY      MOCLDY    73  72  96 SE3       30.03R
BAY BRIDGE AP* CLEAR     79  73  83 SE3       30.02R
CAMBRIDGE*     CLOUDY    77  70  78 SE6       30.02R
EASTON*        MOCLDY    75  72  88 CALM      30.06R

$$

MDZ017>025-170300-
SOUTHERN MARYLAND

CITY           SKY/WX    TMP DP  RH WIND       PRES   REMARKS
PATUXENT RIVER CLOUDY    79  74  84 SW6       30.01R
ST INIGOES     CLOUDY    77  73  87 S3        30.01R
LEONARDTOWN*   CLOUDY    77  73  88 CALM      30.04R

$$

MDZ003>005-170300-
NORTH CENTRAL MARYLAND

CITY           SKY/WX    TMP DP  RH WIND       PRES   REMARKS
FREDERICK*     CLEAR     72  72 100 CALM      30.06R
HAGERSTOWN APT CLEAR     76  65  68 CALM      30.05R
WESTMINSTER*   CLEAR     75  70  83 CALM      30.05R

$$

MDZ501>502-170300-
WESTERN MARYLAND

CITY           SKY/WX    TMP DP  RH WIND       PRES   REMARKS
OAKLAND*       CLEAR     68  59  73 CALM      30.15R
CUMBERLAND*    PTCLDY    77  66  69 N5        30.10R

$$

VAZ025>031-170300-
SHENANDOAH VALLEY

CITY           SKY/WX    TMP DP  RH WIND       PRES   REMARKS
WINCHESTER*    MOCLDY    72  68  88 CALM      30.05R
FRONT ROYAL*   PTCLDY    75  72  88 CALM      30.04R
LURAY*         CLOUDY    77  72  83 CALM      30.05R
NEW MARKET*    CLOUDY   N/A N/A N/A CALM      30.05R
STAUNTON*      CLEAR     72  68  88 CALM      30.08R
WAYNESBORO*    CLEAR     73  70  91 SW5       30.08R

$$

WVZ021-048>050-054>055-170300-
EASTERN WEST VIRGINIA PANHANDLE

CITY           SKY/WX    TMP DP  RH WIND       PRES   REMARKS
MARTINSBURG    PTCLDY    75  70  83 CALM      30.03
PETERSBURG*    MOCLDY    74  72  92 CALM      30.07R

$$

VAZ036>039-050-170300-
CENTRAL FOOTHILLS

CITY           SKY/WX    TMP DP  RH WIND       PRES   REMARKS
CHARLOTTESVILL CLEAR     78  71  79 N3        30.04R
CULPEPER*      MOCLDY    77  73  87 CALM      30.04R
ORANGE*        CLOUDY    75  72  88 CALM      30.03R
GORDONSVILLE*  MOCLDY    76  74  95 CALM      30.03R
WARRENTON*     NOT AVBL

$$

VAZ055>057-170300-
NORTH AND CENTRAL PIEDMONT

CITY           SKY/WX    TMP DP  RH WIND       PRES   REMARKS
FREDERICKSBRG* CLOUDY    77  74  92 CALM      30.01R
STAFFORD*      CLOUDY    76  76 100 CALM      30.06R

$$

NCZ024-NYZ072-PAZ021-071-VAZ022-071-170300-
OTHER REGIONAL OBSERVATIONS

CITY           SKY/WX    TMP DP  RH WIND       PRES   REMARKS
NEW YORK CITY  CLEAR     78  61  55 W3        30.03R
PHILADELPHIA   PTCLDY    79  67  66 S3        30.01R
PITTSBURGH     PTCLDY    76  60  57 E3        30.06R
ROANOKE        CLEAR     80  69  69 CALM      30.08R
RICHMOND       PTCLDY    79  73  82 CALM      30.02R
RALEIGH        MOCLDY    80  73  79 CALM      30.05R

$$

ANZ530>537-170300-
MARINE OBSERVATIONS

STATION/POSITION TIME  TEMP    WIND        PRES
                       AIR SEA DIR/SP/G
                 (UTC) (F)     (DEG/KT/KT) (MB)
THOMAS PT LIGHT  0100   81 79   80/  6/  7   N/A
BALT KEY BRIDGE  0148   80     160/  4/  4 1016.3R
COVE POINT       0148   81     210/  5/  8 1016.9R
LEWISETTA        0148   80 84  210/  6/  7 1016.3R
SOLOMONS ISLAND  0148   81 82  320/  3/  6   N/A
PINEY POINT      0148          210/ 10/ 11   N/A

$$




USA.gov is the U.S. government's official web portal to all federal, state and local government web resources and services.